Location: Feudal
(51.8839°N, 107.6105°W)
Time: 05:35:08
(UTC+00:00)

Envisat - Pass Details

Date: 25 January 2022
Orbit: 764 x 765 km, 98.2° (Epoch: 25 May)

Event Time Altitude Azimuth Distance (km) Brightness Sun altitude
Rises 11:33:28 0° 19° (NNE) 3,244 6.6 -31.5°
Reaches altitude 10° 11:35:56 10° 27° (NNE) 2,314 5.9 -31.2°
Maximum altitude 11:40:43 39° 97° (E) 1,135 4.2 -30.4°
Drops below altitude 10° 11:45:27 10° 166° (SSE) 2,298 5.5 -29.7°
Sets 11:47:53 0° 174° (S) 3,220 6.2 -29.3°
